TAP1477 LPPT-GGOV

Flight info

Callsign TAP1477
Flight time 4h 2m
Altitude 35000
Route BEVOP DCT TAKAV DCT ESS UR724 ADM UR975 DIDAN/N0451F360 UR975 ARDAR UR620 SISNU/N0455F370 UR865 KOMAB
Aircraft A21N/M-SADE1E2E3FGHIJ1J3J4J7M3P2RWXYZ/LB1D1

Departure

Time 2026-05-07 12:51
Airport Lisbon Humberto Delgado Airport (LPPT)

Arrival

Time 2026-05-07 16:54
Airport Osvaldo Vieira International Airport (GGOV)
Time Latitude Longitude Altitude Speed Heading
2026-05-07 12:05 38.76934 -9.13086 353 ft 0 kts 78°
2026-05-07 12:41 38.76934 -9.13088 352 ft 2 kts 78°
2026-05-07 12:41 38.76929 -9.13121 352 ft 4 kts 87°
2026-05-07 12:42 38.76933 -9.13149 361 ft 4 kts 139°
2026-05-07 12:42 38.76939 -9.13155 352 ft 3 kts 170°
2026-05-07 12:44 38.76935 -9.13154 359 ft 2 kts 170°
2026-05-07 12:44 38.76910 -9.13148 359 ft 6 kts 170°
2026-05-07 12:45 38.76860 -9.13137 356 ft 9 kts 170°
2026-05-07 12:45 38.76792 -9.13144 352 ft 12 kts 236°
2026-05-07 12:45 38.76763 -9.13262 352 ft 15 kts 257°
2026-05-07 12:45 38.76718 -9.13394 354 ft 18 kts 208°
2026-05-07 12:46 38.76649 -9.13517 352 ft 19 kts 261°
2026-05-07 12:46 38.76620 -9.13688 356 ft 20 kts 259°
2026-05-07 12:46 38.76593 -9.13870 352 ft 21 kts 256°
2026-05-07 12:46 38.76537 -9.14046 357 ft 22 kts 232°
2026-05-07 12:47 38.76496 -9.14162 351 ft 9 kts 279°
2026-05-07 12:47 38.76515 -9.14235 354 ft 0 kts 296°
2026-05-07 12:48 38.76519 -9.14246 350 ft 3 kts 296°
2026-05-07 12:48 38.76531 -9.14277 357 ft 5 kts 296°
2026-05-07 12:48 38.76538 -9.14300 352 ft 0 kts 290°
2026-05-07 12:49 38.76539 -9.14303 348 ft 1 kts 290°
2026-05-07 12:49 38.76546 -9.14326 354 ft 4 kts 290°
2026-05-07 12:49 38.76560 -9.14373 344 ft 7 kts 290°
2026-05-07 12:50 38.76588 -9.14415 344 ft 7 kts 19°
2026-05-07 12:50 38.76590 -9.14414 351 ft 0 kts 22°
2026-05-07 12:50 38.76607 -9.14406 348 ft 19 kts 21°
2026-05-07 12:50 38.76957 -9.14221 349 ft 88 kts 22°
2026-05-07 12:51 38.77703 -9.13822 351 ft 143 kts 23°
2026-05-07 12:51 38.78741 -9.13265 387 ft 180 kts 22°
2026-05-07 12:51 38.79899 -9.12624 915 ft 181 kts 24°
2026-05-07 12:51 38.80991 -9.11811 1564 ft 183 kts 31°
2026-05-07 12:52 38.82115 -9.10952 2084 ft 193 kts 29°
2026-05-07 12:52 38.83341 -9.10055 2620 ft 211 kts 29°
2026-05-07 12:52 38.84667 -9.09090 3193 ft 230 kts 29°
2026-05-07 12:52 38.86129 -9.08013 3619 ft 253 kts 32°
2026-05-07 12:53 38.87466 -9.06456 4233 ft 266 kts 56°
2026-05-07 12:53 38.88155 -9.04285 5005 ft 270 kts 82°
2026-05-07 12:53 38.88001 -9.01888 5822 ft 271 kts 110°
2026-05-07 12:53 38.87148 -8.99725 6637 ft 274 kts 123°
2026-05-07 12:54 38.85898 -8.97903 7440 ft 277 kts 143°
2026-05-07 12:54 38.84170 -8.96818 8235 ft 279 kts 167°
2026-05-07 12:54 38.82221 -8.96737 9039 ft 282 kts 191°
2026-05-07 12:54 38.80356 -8.97565 9821 ft 286 kts 204°
2026-05-07 12:55 38.78507 -8.98650 10358 ft 301 kts 205°
2026-05-07 12:55 38.76554 -8.99784 10669 ft 322 kts 204°
2026-05-07 12:55 38.74430 -9.00976 10977 ft 343 kts 203°
2026-05-07 12:55 38.72176 -9.02204 11375 ft 358 kts 203°
2026-05-07 12:56 38.69858 -9.03452 12039 ft 363 kts 202°
2026-05-07 12:56 38.67519 -9.04705 12754 ft 367 kts 202°
2026-05-07 12:56 38.65175 -9.05958 13453 ft 370 kts 203°
2026-05-07 12:56 38.62759 -9.07250 14129 ft 374 kts 203°
2026-05-07 12:57 38.60372 -9.08524 14764 ft 378 kts 203°
2026-05-07 12:57 38.57937 -9.09824 15385 ft 381 kts 204°
2026-05-07 12:57 38.55473 -9.11138 15990 ft 385 kts 204°
2026-05-07 12:57 38.52991 -9.12462 16562 ft 388 kts 204°
2026-05-07 12:58 38.50482 -9.13796 17123 ft 392 kts 204°
2026-05-07 12:58 38.47985 -9.15124 17650 ft 395 kts 204°
2026-05-07 12:58 38.45438 -9.16481 18177 ft 398 kts 204°
2026-05-07 12:58 38.42862 -9.17850 18685 ft 402 kts 203°
2026-05-07 12:59 38.40194 -9.18979 19195 ft 406 kts 198°
2026-05-07 12:59 38.37460 -9.19972 19668 ft 410 kts 197°
2026-05-07 12:59 38.34707 -9.20958 20139 ft 413 kts 197°
2026-05-07 12:59 38.31967 -9.21943 20607 ft 416 kts 198°
2026-05-07 13:00 38.29162 -9.22955 21060 ft 419 kts 198°
2026-05-07 13:00 38.26338 -9.23974 21523 ft 422 kts 198°
2026-05-07 13:00 38.23490 -9.25001 21995 ft 426 kts 198°
2026-05-07 13:00 38.20631 -9.26032 22441 ft 429 kts 198°
2026-05-07 13:01 38.17741 -9.27074 22882 ft 432 kts 198°
2026-05-07 13:01 38.14868 -9.28109 23312 ft 435 kts 198°
2026-05-07 13:01 38.11948 -9.29161 23734 ft 438 kts 198°
2026-05-07 13:01 38.08992 -9.30225 24149 ft 441 kts 198°
2026-05-07 13:02 38.06028 -9.31293 24566 ft 443 kts 198°
2026-05-07 13:02 38.03085 -9.32356 24971 ft 446 kts 198°
2026-05-07 13:02 38.00071 -9.33355 25358 ft 449 kts 193°
2026-05-07 13:02 37.96958 -9.33904 25750 ft 453 kts 188°
2026-05-07 13:03 37.93807 -9.34314 26132 ft 456 kts 188°
2026-05-07 13:03 37.90646 -9.34704 26499 ft 458 kts 188°
2026-05-07 13:03 37.87466 -9.35110 26858 ft 460 kts 188°
2026-05-07 13:03 37.84261 -9.35528 27193 ft 462 kts 188°
2026-05-07 13:04 37.81060 -9.35947 27520 ft 464 kts 188°
2026-05-07 13:04 37.77870 -9.36365 27833 ft 466 kts 189°
2026-05-07 13:04 37.74621 -9.36799 28132 ft 468 kts 189°
2026-05-07 13:04 37.71364 -9.37236 28515 ft 467 kts 189°
2026-05-07 13:05 37.68159 -9.37663 28935 ft 466 kts 189°
2026-05-07 13:05 37.64925 -9.38090 29335 ft 465 kts 189°
2026-05-07 13:05 37.61743 -9.38506 29694 ft 464 kts 189°
2026-05-07 13:05 37.58501 -9.38743 30052 ft 466 kts 183°
2026-05-07 13:06 37.55255 -9.38724 30414 ft 465 kts 183°
2026-05-07 13:06 37.52018 -9.38687 30772 ft 464 kts 183°
2026-05-07 13:06 37.48830 -9.38654 31116 ft 464 kts 183°
2026-05-07 13:06 37.45585 -9.38619 31443 ft 463 kts 183°
2026-05-07 13:07 37.42350 -9.38586 31775 ft 462 kts 183°
2026-05-07 13:07 37.39176 -9.38556 32097 ft 461 kts 183°
2026-05-07 13:07 37.35962 -9.38525 32417 ft 460 kts 183°
2026-05-07 13:07 37.32760 -9.38492 32704 ft 459 kts 183°
2026-05-07 13:08 37.29595 -9.38465 32985 ft 459 kts 184°
2026-05-07 13:08 37.26395 -9.38435 33259 ft 458 kts 183°
2026-05-07 13:08 37.23197 -9.38404 33535 ft 457 kts 184°
2026-05-07 13:08 37.20019 -9.38373 33787 ft 456 kts 184°
2026-05-07 13:09 37.16842 -9.38342 34015 ft 456 kts 184°
2026-05-07 13:09 37.13673 -9.38311 34254 ft 455 kts 184°
2026-05-07 13:09 37.10496 -9.38283 34461 ft 455 kts 184°
2026-05-07 13:09 37.07370 -9.38255 34671 ft 455 kts 184°
2026-05-07 13:10 37.04199 -9.38225 34875 ft 455 kts 184°
2026-05-07 13:10 37.01028 -9.38194 34959 ft 455 kts 184°
2026-05-07 13:10 36.94692 -9.38130 34946 ft 454 kts 184°
2026-05-07 13:11 36.88375 -9.38069 34930 ft 454 kts 184°
2026-05-07 13:11 36.82099 -9.38009 34931 ft 453 kts 184°
2026-05-07 13:12 36.75787 -9.37952 34930 ft 454 kts 184°
2026-05-07 13:12 36.69480 -9.37895 34930 ft 453 kts 184°
2026-05-07 13:13 36.64212 -9.37851 34940 ft 453 kts 184°
2026-05-07 13:13 36.57928 -9.37795 34940 ft 453 kts 184°
2026-05-07 13:14 36.51609 -9.37728 34935 ft 453 kts 184°
2026-05-07 13:14 36.45306 -9.37665 34933 ft 452 kts 184°
2026-05-07 13:15 36.39022 -9.37612 34930 ft 452 kts 184°
2026-05-07 13:15 36.32718 -9.37551 34931 ft 452 kts 184°
2026-05-07 13:16 36.26426 -9.37492 34930 ft 452 kts 184°
2026-05-07 13:16 36.20145 -9.37431 34931 ft 452 kts 184°
2026-05-07 13:17 36.13847 -9.37374 34931 ft 452 kts 184°
2026-05-07 13:17 36.07565 -9.37316 34929 ft 452 kts 184°
2026-05-07 13:18 36.01298 -9.37260 34930 ft 452 kts 184°
2026-05-07 13:18 35.95011 -9.37332 34931 ft 450 kts 187°
2026-05-07 13:19 35.88772 -9.37773 34930 ft 449 kts 187°
2026-05-07 13:19 35.82552 -9.38228 34930 ft 449 kts 187°
2026-05-07 13:20 35.76297 -9.38683 34930 ft 449 kts 187°
2026-05-07 13:20 35.70082 -9.39132 34929 ft 449 kts 187°
2026-05-07 13:21 35.63823 -9.39582 34930 ft 449 kts 187°
2026-05-07 13:21 35.57604 -9.40034 34930 ft 449 kts 187°
2026-05-07 13:22 35.51334 -9.40483 34929 ft 449 kts 187°
2026-05-07 13:22 35.45109 -9.40934 34931 ft 450 kts 187°
2026-05-07 13:23 35.38856 -9.41384 34931 ft 450 kts 187°
2026-05-07 13:23 35.32609 -9.41830 34931 ft 450 kts 187°
2026-05-07 13:24 35.26387 -9.42276 34930 ft 450 kts 187°
2026-05-07 13:24 35.20125 -9.42729 34930 ft 450 kts 187°
2026-05-07 13:25 35.13894 -9.43172 34930 ft 450 kts 187°
2026-05-07 13:25 35.07627 -9.43615 34931 ft 450 kts 187°
2026-05-07 13:26 35.01395 -9.44060 34931 ft 450 kts 187°
2026-05-07 13:26 34.95129 -9.44507 34931 ft 450 kts 187°
2026-05-07 13:27 34.88895 -9.44945 34930 ft 450 kts 187°
2026-05-07 13:27 34.82627 -9.45391 34930 ft 450 kts 187°
2026-05-07 13:28 34.76393 -9.45834 34930 ft 450 kts 187°
2026-05-07 13:28 34.70164 -9.46274 34930 ft 449 kts 187°
2026-05-07 13:29 34.63906 -9.46718 34931 ft 449 kts 187°
2026-05-07 13:29 34.57688 -9.47155 34931 ft 449 kts 187°
2026-05-07 13:30 34.51416 -9.47596 34931 ft 449 kts 187°
2026-05-07 13:30 34.45192 -9.48031 34930 ft 449 kts 187°
2026-05-07 13:31 34.38972 -9.48470 34930 ft 449 kts 187°
2026-05-07 13:31 34.32712 -9.48906 34930 ft 448 kts 187°
2026-05-07 13:32 34.26504 -9.49337 34930 ft 448 kts 187°
2026-05-07 13:32 34.20305 -9.49770 34930 ft 448 kts 187°
2026-05-07 13:33 34.14058 -9.50204 34930 ft 448 kts 187°
2026-05-07 13:33 34.07818 -9.50634 34930 ft 448 kts 187°
2026-05-07 13:34 33.98479 -9.51286 34930 ft 448 kts 187°
2026-05-07 13:35 33.92269 -9.51717 34930 ft 448 kts 187°
2026-05-07 13:35 33.86064 -9.52143 34930 ft 448 kts 187°
2026-05-07 13:36 33.79816 -9.52575 34929 ft 448 kts 187°
2026-05-07 13:36 33.73616 -9.53002 34930 ft 448 kts 187°
2026-05-07 13:37 33.67371 -9.53435 34930 ft 448 kts 187°
2026-05-07 13:37 33.61159 -9.53862 34937 ft 449 kts 187°
2026-05-07 13:38 33.54904 -9.54293 34939 ft 449 kts 187°
2026-05-07 13:38 33.48680 -9.54722 34931 ft 449 kts 187°
2026-05-07 13:39 33.42454 -9.55150 34934 ft 449 kts 187°
2026-05-07 13:39 33.36241 -9.55575 34931 ft 449 kts 187°
2026-05-07 13:40 33.30002 -9.56000 34930 ft 449 kts 187°
2026-05-07 13:40 33.23742 -9.56428 34931 ft 449 kts 186°
2026-05-07 13:41 33.17515 -9.56853 34937 ft 449 kts 186°
2026-05-07 13:41 33.11288 -9.57276 34939 ft 449 kts 186°
2026-05-07 13:42 33.05038 -9.57702 34937 ft 449 kts 186°
2026-05-07 13:42 32.98821 -9.58124 34939 ft 449 kts 186°
2026-05-07 13:43 32.92597 -9.58547 34942 ft 449 kts 186°
2026-05-07 13:43 32.86319 -9.58970 34944 ft 450 kts 186°
2026-05-07 13:44 32.80086 -9.59389 34938 ft 450 kts 186°
2026-05-07 13:44 32.73847 -9.59808 34937 ft 450 kts 186°
2026-05-07 13:45 32.67621 -9.60228 34936 ft 449 kts 186°
2026-05-07 13:45 32.61356 -9.60656 34943 ft 449 kts 186°
2026-05-07 13:46 32.55130 -9.61075 34936 ft 449 kts 186°
2026-05-07 13:46 32.48915 -9.61487 34942 ft 449 kts 186°
2026-05-07 13:47 32.42653 -9.61909 34937 ft 449 kts 186°
2026-05-07 13:47 32.36429 -9.62324 34936 ft 449 kts 186°
2026-05-07 13:48 32.30206 -9.62739 34943 ft 449 kts 186°
2026-05-07 13:48 32.23938 -9.63159 34940 ft 449 kts 186°
2026-05-07 13:49 32.17718 -9.63571 34936 ft 449 kts 186°
2026-05-07 13:49 32.11489 -9.63984 34939 ft 449 kts 186°
2026-05-07 13:50 32.05256 -9.64396 34945 ft 449 kts 186°
2026-05-07 13:50 31.98990 -9.64812 34938 ft 449 kts 186°
2026-05-07 13:51 31.92772 -9.65224 34939 ft 449 kts 186°
2026-05-07 13:51 31.86523 -9.65641 34930 ft 449 kts 186°
2026-05-07 13:52 31.80296 -9.66056 34930 ft 449 kts 186°
2026-05-07 13:52 31.74058 -9.66466 34930 ft 449 kts 186°
2026-05-07 13:53 31.67799 -9.66880 34931 ft 449 kts 186°
2026-05-07 13:53 31.61567 -9.67292 34931 ft 450 kts 186°
2026-05-07 13:54 31.55335 -9.67700 34927 ft 449 kts 186°
2026-05-07 13:54 31.49079 -9.68115 34930 ft 449 kts 186°
2026-05-07 13:55 31.42836 -9.68522 34931 ft 449 kts 186°
2026-05-07 13:55 31.36603 -9.67813 34935 ft 456 kts 169°
2026-05-07 13:56 31.30450 -9.66040 34933 ft 456 kts 168°
2026-05-07 13:56 31.24303 -9.64292 34930 ft 456 kts 169°
2026-05-07 13:57 31.18100 -9.62555 34931 ft 456 kts 169°
2026-05-07 13:57 31.11948 -9.60843 34929 ft 456 kts 169°
2026-05-07 13:58 31.05787 -9.59137 34922 ft 456 kts 169°
2026-05-07 13:58 30.99580 -9.57374 34921 ft 456 kts 168°
2026-05-07 13:59 30.93432 -9.55598 34910 ft 456 kts 168°
2026-05-07 13:59 30.87255 -9.53827 34911 ft 456 kts 168°
2026-05-07 14:00 30.81099 -9.52067 34902 ft 456 kts 168°
2026-05-07 14:00 30.74946 -9.50307 34897 ft 456 kts 168°
2026-05-07 14:01 30.69802 -9.48846 34892 ft 456 kts 169°
2026-05-07 14:01 30.63627 -9.47124 34891 ft 456 kts 169°
2026-05-07 14:02 30.57461 -9.45404 34885 ft 457 kts 169°
2026-05-07 14:02 30.51277 -9.43681 34879 ft 457 kts 169°
2026-05-07 14:03 30.45080 -9.41959 34879 ft 457 kts 169°
2026-05-07 14:03 30.38913 -9.40235 34878 ft 457 kts 169°
2026-05-07 14:04 30.32683 -9.39073 34870 ft 452 kts 184°
2026-05-07 14:04 30.29608 -9.39501 34877 ft 448 kts 196°
2026-05-07 14:04 30.26645 -9.40620 34886 ft 445 kts 203°
2026-05-07 14:05 30.20863 -9.43236 34882 ft 445 kts 204°
2026-05-07 14:05 30.15080 -9.45787 34880 ft 445 kts 203°
2026-05-07 14:06 30.09295 -9.48310 34879 ft 445 kts 203°
2026-05-07 14:06 30.03520 -9.50833 34882 ft 445 kts 203°
2026-05-07 14:07 29.97740 -9.53355 34881 ft 445 kts 203°
2026-05-07 14:07 29.91932 -9.55871 34879 ft 445 kts 203°
2026-05-07 14:08 29.86159 -9.58383 34878 ft 445 kts 203°
2026-05-07 14:08 29.80346 -9.60923 34888 ft 444 kts 203°
2026-05-07 14:09 29.74586 -9.63433 34891 ft 445 kts 203°
2026-05-07 14:09 29.68783 -9.65953 34892 ft 445 kts 203°
2026-05-07 14:10 29.63009 -9.68453 35013 ft 446 kts 203°
2026-05-07 14:10 29.60104 -9.69703 35238 ft 445 kts 203°
2026-05-07 14:10 29.57186 -9.70965 35476 ft 444 kts 203°
2026-05-07 14:10 29.54291 -9.72221 35679 ft 444 kts 203°
2026-05-07 14:11 29.51430 -9.73466 35869 ft 444 kts 203°
2026-05-07 14:11 29.45624 -9.75968 35933 ft 443 kts 202°
2026-05-07 14:12 29.39860 -9.78449 35906 ft 443 kts 203°
2026-05-07 14:12 29.34120 -9.80923 35900 ft 443 kts 203°
2026-05-07 14:13 29.28334 -9.83424 35900 ft 443 kts 203°
2026-05-07 14:13 29.22549 -9.85910 35901 ft 443 kts 203°
2026-05-07 14:14 29.16782 -9.88387 35901 ft 444 kts 203°
2026-05-07 14:14 29.10990 -9.90872 35900 ft 444 kts 203°
2026-05-07 14:15 29.05252 -9.93345 35901 ft 443 kts 203°
2026-05-07 14:15 28.99460 -9.95832 35903 ft 444 kts 203°
2026-05-07 14:16 28.93697 -9.98275 35908 ft 444 kts 202°
2026-05-07 14:16 28.87902 -10.00742 35904 ft 444 kts 203°
2026-05-07 14:17 28.82092 -10.03215 35899 ft 444 kts 203°
2026-05-07 14:17 28.76333 -10.05658 35900 ft 444 kts 203°
2026-05-07 14:18 28.70516 -10.08124 35901 ft 444 kts 203°
2026-05-07 14:18 28.64743 -10.10565 35900 ft 444 kts 202°
2026-05-07 14:19 28.58942 -10.13019 35901 ft 444 kts 203°
2026-05-07 14:19 28.53159 -10.15464 35898 ft 444 kts 203°
2026-05-07 14:20 28.47370 -10.17907 35901 ft 444 kts 202°
2026-05-07 14:20 28.41563 -10.20352 35902 ft 444 kts 203°
2026-05-07 14:21 28.35743 -10.22805 35902 ft 445 kts 203°
2026-05-07 14:21 28.29954 -10.25239 35901 ft 445 kts 202°
2026-05-07 14:22 28.24148 -10.27679 35903 ft 445 kts 203°
2026-05-07 14:22 28.18359 -10.30110 35900 ft 445 kts 203°
2026-05-07 14:23 28.12532 -10.32552 35899 ft 445 kts 202°
2026-05-07 14:23 28.06744 -10.34974 35901 ft 445 kts 202°
2026-05-07 14:24 28.00942 -10.37398 35899 ft 445 kts 202°
2026-05-07 14:24 27.95148 -10.39821 35901 ft 445 kts 203°
2026-05-07 14:25 27.89319 -10.42251 35902 ft 445 kts 202°
2026-05-07 14:25 27.83529 -10.44664 35900 ft 445 kts 202°
2026-05-07 14:26 27.77743 -10.47070 35900 ft 445 kts 202°
2026-05-07 14:26 27.71930 -10.49486 35900 ft 444 kts 203°
2026-05-07 14:27 27.66121 -10.51904 35901 ft 444 kts 203°
2026-05-07 14:27 27.60366 -10.54379 35909 ft 444 kts 204°
2026-05-07 14:28 27.54599 -10.56875 35911 ft 444 kts 204°
2026-05-07 14:28 27.48828 -10.59359 35912 ft 444 kts 204°
2026-05-07 14:29 27.43055 -10.61842 35910 ft 443 kts 204°
2026-05-07 14:29 27.37317 -10.64305 35909 ft 443 kts 204°
2026-05-07 14:30 27.31532 -10.66787 35909 ft 443 kts 204°
2026-05-07 14:30 27.25801 -10.69247 35910 ft 443 kts 204°
2026-05-07 14:31 27.20021 -10.71720 35918 ft 443 kts 204°
2026-05-07 14:31 27.14285 -10.74177 35916 ft 443 kts 204°
2026-05-07 14:32 27.08504 -10.76640 35910 ft 442 kts 204°
2026-05-07 14:32 27.02795 -10.79073 35911 ft 442 kts 204°
2026-05-07 14:33 26.97043 -10.81528 35912 ft 442 kts 204°
2026-05-07 14:33 26.91296 -10.83982 35911 ft 442 kts 204°
2026-05-07 14:34 26.85512 -10.86438 35910 ft 442 kts 204°
2026-05-07 14:34 26.79775 -10.88867 35909 ft 442 kts 204°
2026-05-07 14:35 26.74046 -10.91298 35911 ft 442 kts 204°
2026-05-07 14:35 26.68277 -10.93741 35911 ft 442 kts 204°
2026-05-07 14:36 26.62550 -10.96167 35910 ft 442 kts 204°
2026-05-07 14:36 26.56772 -10.98609 35912 ft 441 kts 204°
2026-05-07 14:37 26.51041 -11.01030 35910 ft 441 kts 204°
2026-05-07 14:37 26.42417 -11.04669 35910 ft 442 kts 204°
2026-05-07 14:38 26.36678 -11.07086 35908 ft 442 kts 204°
2026-05-07 14:38 26.30936 -11.09501 35910 ft 442 kts 204°
2026-05-07 14:39 26.25207 -11.11912 35910 ft 442 kts 204°
2026-05-07 14:39 26.19442 -11.14334 35910 ft 442 kts 204°
2026-05-07 14:40 26.13709 -11.16732 35914 ft 441 kts 204°
2026-05-07 14:40 26.07928 -11.19150 35937 ft 441 kts 204°
2026-05-07 14:41 26.02202 -11.21558 35938 ft 442 kts 204°
2026-05-07 14:41 25.96479 -11.23951 35941 ft 441 kts 204°
2026-05-07 14:42 25.90726 -11.26352 35941 ft 441 kts 204°
2026-05-07 14:42 25.84973 -11.28753 35942 ft 441 kts 204°
2026-05-07 14:43 25.79264 -11.31133 35940 ft 441 kts 204°
2026-05-07 14:43 25.73510 -11.33529 35941 ft 441 kts 204°
2026-05-07 14:44 25.67758 -11.35921 35940 ft 441 kts 204°
2026-05-07 14:44 25.62007 -11.38309 35941 ft 441 kts 204°
2026-05-07 14:45 25.56290 -11.40685 35941 ft 440 kts 204°
2026-05-07 14:45 25.50557 -11.43062 35941 ft 440 kts 204°
2026-05-07 14:46 25.44809 -11.45441 35940 ft 440 kts 204°
2026-05-07 14:46 25.39084 -11.47811 35940 ft 440 kts 204°
2026-05-07 14:47 25.33360 -11.50181 35941 ft 440 kts 204°
2026-05-07 14:47 25.27619 -11.52552 35940 ft 439 kts 204°
2026-05-07 14:48 25.21909 -11.54902 35939 ft 440 kts 203°
2026-05-07 14:48 25.16113 -11.57113 35940 ft 440 kts 202°
2026-05-07 14:49 25.10303 -11.59306 35940 ft 440 kts 202°
2026-05-07 14:49 25.04528 -11.61487 35941 ft 440 kts 202°
2026-05-07 14:50 24.99688 -11.63317 35940 ft 440 kts 202°
2026-05-07 14:50 24.93925 -11.65491 35948 ft 439 kts 202°
2026-05-07 14:51 24.88130 -11.67669 35950 ft 439 kts 202°
2026-05-07 14:51 24.82378 -11.69831 35951 ft 439 kts 202°
2026-05-07 14:52 24.76599 -11.72005 35949 ft 439 kts 202°
2026-05-07 14:52 24.70809 -11.74181 35949 ft 438 kts 202°
2026-05-07 14:53 24.65054 -11.76341 35950 ft 438 kts 202°
2026-05-07 14:53 24.59263 -11.78511 35950 ft 438 kts 202°
2026-05-07 14:54 24.53483 -11.80670 35950 ft 438 kts 202°
2026-05-07 14:54 24.47736 -11.82815 35950 ft 438 kts 202°
2026-05-07 14:55 24.41944 -11.84982 35950 ft 439 kts 202°
2026-05-07 14:55 24.36192 -11.87127 35951 ft 438 kts 202°
2026-05-07 14:56 24.30409 -11.89282 35950 ft 438 kts 202°
2026-05-07 14:56 24.24653 -11.91428 35949 ft 438 kts 202°
2026-05-07 14:57 24.18877 -11.93580 35951 ft 438 kts 202°
2026-05-07 14:57 24.13122 -11.95720 35951 ft 438 kts 202°
2026-05-07 14:58 24.07321 -11.97875 35951 ft 438 kts 202°
2026-05-07 14:58 24.01561 -12.00012 35950 ft 438 kts 202°
2026-05-07 14:59 23.95767 -12.02163 35950 ft 438 kts 202°
2026-05-07 14:59 23.90009 -12.04292 35950 ft 438 kts 202°
2026-05-07 15:00 23.84260 -12.06422 35950 ft 438 kts 202°
2026-05-07 15:00 23.78477 -12.08562 35950 ft 438 kts 202°
2026-05-07 15:01 23.72688 -12.10699 35949 ft 438 kts 202°
2026-05-07 15:01 23.66936 -12.12819 35941 ft 438 kts 202°
2026-05-07 15:02 23.61154 -12.14951 35941 ft 438 kts 202°
2026-05-07 15:02 23.55376 -12.17080 35941 ft 438 kts 202°
2026-05-07 15:03 23.49598 -12.19209 35940 ft 437 kts 202°
2026-05-07 15:03 23.43852 -12.21322 35940 ft 437 kts 202°
2026-05-07 15:04 23.38109 -12.23434 35941 ft 437 kts 202°
2026-05-07 15:04 23.32334 -12.25549 35940 ft 437 kts 202°
2026-05-07 15:05 23.26550 -12.27664 35939 ft 437 kts 202°
2026-05-07 15:05 23.20811 -12.29769 35940 ft 436 kts 202°
2026-05-07 15:06 23.15053 -12.31873 35939 ft 436 kts 202°
2026-05-07 15:06 23.09331 -12.33972 35940 ft 436 kts 202°
2026-05-07 15:07 23.03578 -12.36076 35940 ft 435 kts 202°
2026-05-07 15:07 22.97811 -12.38179 35940 ft 435 kts 202°
2026-05-07 15:08 22.92106 -12.40259 35940 ft 435 kts 202°
2026-05-07 15:08 22.86356 -12.42348 35940 ft 435 kts 202°
2026-05-07 15:09 22.80647 -12.44424 35940 ft 434 kts 202°
2026-05-07 15:09 22.74905 -12.46449 35940 ft 436 kts 199°
2026-05-07 15:10 22.68998 -12.48057 35940 ft 436 kts 198°
2026-05-07 15:10 22.63137 -12.49628 35939 ft 436 kts 198°
2026-05-07 15:11 22.57268 -12.51221 35940 ft 435 kts 198°
2026-05-07 15:11 22.51388 -12.52819 35941 ft 435 kts 198°
2026-05-07 15:12 22.45517 -12.54411 35941 ft 435 kts 198°
2026-05-07 15:12 22.39620 -12.56008 35939 ft 437 kts 198°
2026-05-07 15:13 22.33706 -12.57607 35943 ft 439 kts 198°
2026-05-07 15:13 22.27804 -12.59205 35941 ft 439 kts 198°
2026-05-07 15:14 22.21896 -12.60799 35940 ft 439 kts 198°
2026-05-07 15:14 22.15948 -12.62404 35940 ft 439 kts 198°
2026-05-07 15:15 22.10042 -12.63995 35940 ft 439 kts 198°
2026-05-07 15:15 22.04099 -12.65604 35940 ft 439 kts 198°
2026-05-07 15:16 21.98204 -12.67197 35941 ft 439 kts 198°
2026-05-07 15:16 21.92321 -12.68777 35939 ft 437 kts 198°
2026-05-07 15:17 21.86400 -12.70369 35940 ft 437 kts 198°
2026-05-07 15:17 21.80509 -12.71945 35940 ft 437 kts 198°
2026-05-07 15:18 21.74620 -12.73526 35940 ft 437 kts 198°
2026-05-07 15:18 21.68702 -12.75114 35939 ft 437 kts 198°
2026-05-07 15:19 21.62803 -12.76702 35939 ft 437 kts 198°
2026-05-07 15:19 21.56894 -12.78292 35932 ft 437 kts 198°
2026-05-07 15:20 21.51017 -12.79865 35923 ft 437 kts 198°
2026-05-07 15:20 21.45105 -12.81450 35921 ft 437 kts 198°
2026-05-07 15:21 21.39213 -12.83019 35920 ft 437 kts 198°
2026-05-07 15:21 21.33321 -12.84587 35920 ft 437 kts 198°
2026-05-07 15:22 21.27391 -12.86173 35920 ft 437 kts 198°
2026-05-07 15:22 21.21524 -12.87739 35920 ft 437 kts 198°
2026-05-07 15:23 21.15619 -12.89310 35920 ft 436 kts 198°
2026-05-07 15:23 21.09719 -12.90881 35920 ft 436 kts 198°
2026-05-07 15:24 21.03822 -12.92429 35921 ft 437 kts 198°
2026-05-07 15:24 20.97922 -12.93997 35905 ft 436 kts 198°
2026-05-07 15:25 20.92061 -12.95552 35895 ft 436 kts 198°
2026-05-07 15:25 20.86168 -12.97115 35891 ft 436 kts 198°
2026-05-07 15:26 20.80262 -12.98680 35892 ft 436 kts 198°
2026-05-07 15:26 20.74366 -13.00236 35889 ft 436 kts 198°
2026-05-07 15:27 20.68480 -13.01796 35901 ft 436 kts 198°
2026-05-07 15:27 20.62634 -13.03341 35912 ft 436 kts 198°
2026-05-07 15:28 20.56728 -13.04899 35911 ft 436 kts 198°
2026-05-07 15:28 20.50851 -13.06451 35910 ft 436 kts 198°
2026-05-07 15:29 20.44994 -13.08059 35910 ft 435 kts 199°
2026-05-07 15:29 20.39167 -13.09709 35909 ft 435 kts 198°
2026-05-07 15:30 20.33315 -13.11351 35908 ft 434 kts 198°
2026-05-07 15:30 20.27458 -13.12993 35908 ft 435 kts 198°
2026-05-07 15:31 20.21632 -13.14618 35901 ft 435 kts 198°
2026-05-07 15:31 20.15791 -13.16249 35904 ft 436 kts 196°
2026-05-07 15:32 20.09900 -13.17897 35924 ft 438 kts 195°
2026-05-07 15:32 20.03965 -13.19555 35988 ft 447 kts 195°
2026-05-07 15:33 19.97906 -13.21246 35730 ft 447 kts 201°
2026-05-07 15:33 19.94968 -13.22067 35399 ft 432 kts 201°
2026-05-07 15:33 19.92090 -13.22864 35642 ft 427 kts 201°
2026-05-07 15:34 19.89204 -13.23666 35794 ft 427 kts 200°
2026-05-07 15:34 19.86324 -13.24468 35856 ft 428 kts 200°
2026-05-07 15:34 19.80540 -13.26074 35904 ft 433 kts 199°
2026-05-07 15:35 19.74693 -13.27700 35897 ft 434 kts 198°
2026-05-07 15:35 19.68871 -13.29316 35899 ft 433 kts 198°
2026-05-07 15:36 19.63060 -13.30927 35903 ft 434 kts 198°
2026-05-07 15:36 19.57210 -13.32552 35900 ft 433 kts 198°
2026-05-07 15:37 19.51390 -13.34166 35900 ft 434 kts 198°
2026-05-07 15:37 19.45536 -13.35787 35901 ft 434 kts 198°
2026-05-07 15:38 19.40668 -13.37128 35900 ft 434 kts 198°
2026-05-07 15:38 19.34816 -13.38745 35897 ft 434 kts 198°
2026-05-07 15:39 19.28990 -13.40355 35889 ft 433 kts 198°
2026-05-07 15:39 19.23173 -13.41960 35889 ft 434 kts 198°
2026-05-07 15:40 19.17328 -13.43572 35891 ft 433 kts 198°
2026-05-07 15:40 19.11479 -13.45185 35890 ft 433 kts 198°
2026-05-07 15:41 19.05627 -13.46795 35890 ft 433 kts 198°
2026-05-07 15:41 18.99816 -13.48396 35890 ft 433 kts 198°
2026-05-07 15:42 18.93977 -13.50003 35890 ft 433 kts 198°
2026-05-07 15:42 18.88175 -13.51601 35887 ft 433 kts 198°
2026-05-07 15:43 18.82324 -13.53207 35882 ft 433 kts 198°
2026-05-07 15:43 18.76500 -13.54805 35882 ft 433 kts 198°
2026-05-07 15:44 18.70657 -13.56413 35880 ft 433 kts 198°
2026-05-07 15:44 18.64829 -13.58008 35882 ft 433 kts 198°
2026-05-07 15:45 18.59022 -13.59593 35868 ft 433 kts 198°
2026-05-07 15:45 18.53209 -13.61187 35871 ft 433 kts 198°
2026-05-07 15:46 18.44457 -13.63585 35879 ft 433 kts 198°
2026-05-07 15:47 18.38616 -13.65178 35859 ft 433 kts 198°
2026-05-07 15:47 18.32791 -13.66771 35856 ft 433 kts 198°
2026-05-07 15:48 18.26987 -13.68357 35856 ft 433 kts 198°
2026-05-07 15:48 18.21140 -13.69945 35859 ft 433 kts 198°
2026-05-07 15:49 18.15325 -13.71530 35853 ft 433 kts 198°
2026-05-07 15:49 18.09507 -13.73115 35854 ft 433 kts 198°
2026-05-07 15:50 18.03682 -13.74705 35849 ft 433 kts 198°
2026-05-07 15:50 17.97827 -13.76296 35851 ft 433 kts 198°
2026-05-07 15:51 17.92017 -13.77873 35854 ft 432 kts 198°
2026-05-07 15:51 17.86178 -13.79458 35849 ft 433 kts 198°
2026-05-07 15:52 17.80366 -13.81052 35855 ft 433 kts 199°
2026-05-07 15:52 17.74571 -13.82642 35851 ft 433 kts 198°
2026-05-07 15:53 17.68747 -13.84236 35852 ft 433 kts 198°
2026-05-07 15:53 17.62906 -13.85836 35847 ft 433 kts 198°
2026-05-07 15:54 17.57091 -13.87431 35850 ft 433 kts 198°
2026-05-07 15:54 17.51239 -13.89028 35845 ft 433 kts 198°
2026-05-07 15:55 17.45392 -13.90623 35842 ft 433 kts 198°
2026-05-07 15:55 17.39566 -13.92209 35844 ft 434 kts 198°
2026-05-07 15:56 17.33718 -13.93805 35841 ft 434 kts 198°
2026-05-07 15:56 17.27898 -13.95383 35837 ft 434 kts 198°
2026-05-07 15:57 17.22035 -13.96975 35838 ft 434 kts 198°
2026-05-07 15:57 17.16216 -13.98555 35840 ft 434 kts 198°
2026-05-07 15:58 17.10358 -14.00147 35841 ft 434 kts 198°
2026-05-07 15:58 17.04528 -14.01730 35841 ft 434 kts 198°
2026-05-07 15:59 16.98653 -14.03328 35840 ft 434 kts 198°
2026-05-07 15:59 16.92814 -14.04910 35837 ft 435 kts 198°
2026-05-07 16:00 16.86986 -14.06488 35843 ft 435 kts 198°
2026-05-07 16:00 16.81106 -14.08083 35842 ft 435 kts 198°
2026-05-07 16:01 16.75264 -14.09663 35840 ft 435 kts 198°
2026-05-07 16:01 16.69429 -14.11240 35841 ft 435 kts 198°
2026-05-07 16:02 16.63552 -14.12828 35842 ft 435 kts 198°
2026-05-07 16:02 16.57716 -14.14405 35824 ft 435 kts 198°
2026-05-07 16:03 16.51845 -14.15989 35821 ft 435 kts 198°
2026-05-07 16:03 16.45993 -14.17570 35820 ft 435 kts 198°
2026-05-07 16:04 16.40142 -14.19147 35820 ft 435 kts 197°
2026-05-07 16:04 16.34253 -14.20736 35820 ft 435 kts 197°
2026-05-07 16:05 16.28398 -14.22309 35816 ft 435 kts 197°
2026-05-07 16:05 16.22554 -14.23882 35810 ft 436 kts 197°
2026-05-07 16:06 16.16677 -14.25465 35811 ft 435 kts 197°
2026-05-07 16:06 16.10820 -14.27040 35810 ft 435 kts 197°
2026-05-07 16:07 16.04934 -14.28621 35810 ft 435 kts 197°
2026-05-07 16:07 15.99080 -14.30190 35804 ft 436 kts 197°
2026-05-07 16:08 15.93190 -14.31770 35803 ft 436 kts 197°
2026-05-07 16:08 15.87319 -14.33343 35800 ft 436 kts 197°
2026-05-07 16:09 15.81443 -14.34917 35799 ft 437 kts 197°
2026-05-07 16:09 15.75592 -14.36484 35793 ft 436 kts 197°
2026-05-07 16:10 15.69686 -14.38064 35794 ft 436 kts 197°
2026-05-07 16:10 15.63831 -14.39633 35790 ft 437 kts 197°
2026-05-07 16:11 15.57942 -14.41208 35784 ft 437 kts 197°
2026-05-07 16:11 15.52074 -14.42775 35780 ft 437 kts 197°
2026-05-07 16:12 15.46189 -14.44346 35782 ft 437 kts 197°
2026-05-07 16:12 15.40302 -14.45917 35783 ft 437 kts 197°
2026-05-07 16:13 15.34384 -14.47495 35780 ft 438 kts 197°
2026-05-07 16:13 15.28513 -14.49057 35768 ft 437 kts 197°
2026-05-07 16:14 15.22616 -14.50633 35775 ft 438 kts 197°
2026-05-07 16:14 15.16696 -14.52205 35771 ft 438 kts 197°
2026-05-07 16:15 15.10813 -14.53770 35769 ft 439 kts 197°
2026-05-07 16:15 15.04892 -14.55345 35769 ft 438 kts 197°
2026-05-07 16:16 14.99002 -14.56911 35771 ft 439 kts 197°
2026-05-07 16:16 14.93065 -14.58488 35766 ft 439 kts 196°
2026-05-07 16:17 14.87146 -14.60059 35771 ft 439 kts 197°
2026-05-07 16:17 14.81262 -14.61625 35765 ft 439 kts 196°
2026-05-07 16:18 14.75346 -14.63189 35769 ft 439 kts 196°
2026-05-07 16:18 14.69399 -14.64767 35767 ft 440 kts 196°
2026-05-07 16:19 14.63485 -14.66333 35778 ft 440 kts 196°
2026-05-07 16:19 14.57570 -14.67902 35783 ft 440 kts 196°
2026-05-07 16:20 14.51643 -14.69473 35780 ft 440 kts 196°
2026-05-07 16:20 14.45699 -14.71044 35782 ft 440 kts 196°
2026-05-07 16:21 14.39797 -14.72610 35776 ft 440 kts 196°
2026-05-07 16:21 14.33848 -14.74184 35783 ft 440 kts 196°
2026-05-07 16:22 14.27937 -14.75747 35779 ft 440 kts 196°
2026-05-07 16:22 14.22020 -14.77305 35786 ft 440 kts 196°
2026-05-07 16:23 14.16087 -14.78869 35786 ft 439 kts 196°
2026-05-07 16:23 14.10150 -14.80436 35789 ft 440 kts 196°
2026-05-07 16:24 14.04148 -14.81492 35784 ft 444 kts 181°
2026-05-07 16:24 14.01059 -14.81133 35791 ft 448 kts 170°
2026-05-07 16:24 13.98011 -14.80333 35795 ft 449 kts 167°
2026-05-07 16:25 13.92006 -14.78620 35783 ft 449 kts 167°
2026-05-07 16:25 13.85961 -14.76953 35783 ft 449 kts 167°
2026-05-07 16:26 13.79962 -14.75318 35778 ft 448 kts 167°
2026-05-07 16:26 13.79393 -14.75163 35776 ft 448 kts 167°
2026-05-07 16:27 13.76651 -14.74416 35480 ft 450 kts 169°
2026-05-07 16:27 13.73590 -14.73584 34725 ft 449 kts 168°
2026-05-07 16:27 13.70598 -14.72767 35159 ft 442 kts 168°
2026-05-07 16:27 13.67664 -14.71966 35546 ft 439 kts 167°
2026-05-07 16:28 13.64702 -14.71160 35720 ft 441 kts 167°
2026-05-07 16:28 13.59710 -14.69803 35782 ft 449 kts 167°
2026-05-07 16:29 13.52679 -14.67889 35773 ft 449 kts 167°
2026-05-07 16:29 13.47639 -14.66519 35769 ft 449 kts 167°
2026-05-07 16:30 13.41595 -14.64875 35774 ft 449 kts 167°
2026-05-07 16:30 13.35545 -14.63230 35768 ft 449 kts 167°
2026-05-07 16:31 13.29508 -14.61591 35762 ft 449 kts 167°
2026-05-07 16:31 13.23485 -14.59956 35718 ft 445 kts 167°
2026-05-07 16:31 13.20494 -14.59144 35302 ft 442 kts 167°
2026-05-07 16:32 13.17515 -14.58337 34718 ft 441 kts 167°
2026-05-07 16:32 13.14544 -14.57533 34064 ft 442 kts 167°
2026-05-07 16:32 13.11564 -14.56725 33375 ft 443 kts 167°
2026-05-07 16:32 13.08603 -14.55924 32666 ft 445 kts 167°
2026-05-07 16:33 13.05589 -14.55106 31916 ft 447 kts 167°
2026-05-07 16:33 13.02560 -14.54286 31145 ft 449 kts 167°
2026-05-07 16:33 12.99567 -14.53475 30428 ft 451 kts 167°
2026-05-07 16:33 12.96529 -14.52652 29760 ft 449 kts 167°
2026-05-07 16:34 12.93501 -14.51832 29105 ft 448 kts 167°
2026-05-07 16:34 12.90489 -14.51016 28459 ft 447 kts 167°
2026-05-07 16:34 12.87520 -14.50214 27849 ft 445 kts 167°
2026-05-07 16:34 12.84523 -14.49407 27223 ft 442 kts 167°
2026-05-07 16:35 12.81536 -14.48829 26563 ft 438 kts 176°
2026-05-07 16:35 12.78487 -14.48869 25905 ft 433 kts 188°
2026-05-07 16:35 12.75562 -14.49584 25264 ft 429 kts 201°
2026-05-07 16:35 12.72924 -14.50907 24652 ft 424 kts 213°
2026-05-07 16:36 12.70615 -14.52776 23995 ft 421 kts 225°
2026-05-07 16:36 12.68731 -14.55063 23349 ft 418 kts 234°
2026-05-07 16:36 12.67072 -14.57467 22732 ft 416 kts 236°
2026-05-07 16:36 12.65408 -14.59909 22102 ft 415 kts 235°
2026-05-07 16:37 12.63765 -14.62308 21470 ft 414 kts 235°
2026-05-07 16:37 12.62101 -14.64717 20826 ft 413 kts 235°
2026-05-07 16:37 12.60434 -14.67111 20190 ft 411 kts 235°
2026-05-07 16:37 12.58791 -14.69455 19592 ft 409 kts 234°
2026-05-07 16:38 12.57132 -14.71821 19011 ft 407 kts 234°
2026-05-07 16:38 12.55478 -14.74185 18446 ft 405 kts 234°
2026-05-07 16:38 12.53857 -14.76503 17909 ft 403 kts 234°
2026-05-07 16:38 12.52220 -14.78843 17382 ft 402 kts 234°
2026-05-07 16:39 12.50625 -14.81124 16840 ft 395 kts 234°
2026-05-07 16:39 12.49032 -14.83397 16298 ft 388 kts 234°
2026-05-07 16:39 12.47485 -14.85613 15782 ft 382 kts 234°
2026-05-07 16:39 12.45950 -14.87813 15269 ft 376 kts 234°
2026-05-07 16:40 12.44435 -14.89981 14767 ft 370 kts 234°
2026-05-07 16:40 12.42960 -14.92089 14285 ft 365 kts 234°
2026-05-07 16:40 12.41484 -14.94198 13784 ft 359 kts 234°
2026-05-07 16:40 12.40031 -14.96274 13294 ft 356 kts 234°
2026-05-07 16:41 12.38601 -14.98317 12846 ft 356 kts 233°
2026-05-07 16:41 12.37151 -15.00383 12403 ft 356 kts 233°
2026-05-07 16:41 12.35699 -15.02450 11934 ft 357 kts 233°
2026-05-07 16:41 12.34261 -15.04504 11453 ft 358 kts 233°
2026-05-07 16:42 12.32806 -15.06577 10973 ft 358 kts 233°
2026-05-07 16:42 12.31379 -15.08613 10632 ft 350 kts 233°
2026-05-07 16:42 12.29980 -15.10607 10412 ft 339 kts 233°
2026-05-07 16:42 12.28625 -15.12534 10238 ft 327 kts 234°
2026-05-07 16:43 12.27322 -15.14388 10082 ft 314 kts 234°
2026-05-07 16:43 12.26063 -15.16179 9878 ft 305 kts 234°
2026-05-07 16:43 12.24829 -15.17938 9453 ft 304 kts 234°
2026-05-07 16:43 12.23611 -15.19676 9028 ft 303 kts 234°
2026-05-07 16:44 12.22377 -15.21432 8617 ft 302 kts 234°
2026-05-07 16:44 12.21167 -15.23153 8239 ft 299 kts 234°
2026-05-07 16:44 12.19955 -15.24879 7875 ft 296 kts 234°
2026-05-07 16:44 12.18755 -15.26588 7538 ft 293 kts 234°
2026-05-07 16:45 12.17574 -15.28269 7214 ft 290 kts 234°
2026-05-07 16:45 12.16412 -15.29921 6875 ft 290 kts 234°
2026-05-07 16:45 12.15229 -15.31600 6525 ft 290 kts 234°
2026-05-07 16:45 12.14051 -15.33273 6185 ft 289 kts 234°
2026-05-07 16:46 12.12877 -15.34942 5840 ft 287 kts 234°
2026-05-07 16:46 12.11731 -15.36570 5500 ft 284 kts 234°
2026-05-07 16:46 12.10576 -15.38210 5156 ft 282 kts 234°
2026-05-07 16:46 12.09433 -15.39834 4850 ft 280 kts 234°
2026-05-07 16:47 12.08293 -15.41454 4519 ft 281 kts 234°
2026-05-07 16:47 12.07151 -15.43076 4181 ft 281 kts 234°
2026-05-07 16:47 12.06019 -15.44684 3840 ft 277 kts 234°
2026-05-07 16:47 12.04912 -15.46270 3570 ft 276 kts 236°
2026-05-07 16:48 12.04121 -15.48026 3233 ft 275 kts 259°
2026-05-07 16:48 12.04221 -15.49956 2894 ft 274 kts 288°
2026-05-07 16:48 12.05195 -15.51610 2575 ft 272 kts 311°
2026-05-07 16:48 12.06459 -15.53046 2270 ft 271 kts 310°
2026-05-07 16:49 12.07586 -15.54580 2077 ft 265 kts 303°
2026-05-07 16:49 12.08445 -15.56183 2046 ft 249 kts 288°
2026-05-07 16:49 12.08518 -15.57839 2037 ft 230 kts 252°
2026-05-07 16:49 12.07678 -15.59101 2044 ft 210 kts 216°
2026-05-07 16:50 12.06383 -15.59767 2062 ft 209 kts 199°
2026-05-07 16:50 12.04986 -15.60198 2076 ft 209 kts 196°
2026-05-07 16:50 12.03581 -15.60601 2084 ft 209 kts 197°
2026-05-07 16:50 12.02205 -15.61029 2094 ft 209 kts 198°
2026-05-07 16:51 12.00876 -15.61456 2112 ft 189 kts 199°
2026-05-07 16:51 11.99675 -15.61863 1934 ft 175 kts 199°
2026-05-07 16:51 11.98567 -15.62244 1744 ft 158 kts 199°
2026-05-07 16:51 11.97605 -15.62576 1527 ft 141 kts 199°
2026-05-07 16:52 11.96683 -15.62894 1326 ft 138 kts 199°
2026-05-07 16:52 11.95777 -15.63207 1140 ft 137 kts 200°
2026-05-07 16:52 11.94888 -15.63514 949 ft 136 kts 199°
2026-05-07 16:52 11.93989 -15.63824 768 ft 136 kts 199°
2026-05-07 16:53 11.93093 -15.64132 588 ft 136 kts 199°
2026-05-07 16:53 11.92197 -15.64441 405 ft 135 kts 199°
2026-05-07 16:53 11.91317 -15.64747 233 ft 136 kts 199°
2026-05-07 16:53 11.90428 -15.65050 115 ft 128 kts 198°
2026-05-07 16:54 11.89728 -15.65289 128 ft 81 kts 198°
2026-05-07 16:54 11.89348 -15.65420 133 ft 41 kts 198°
2026-05-07 16:54 11.89068 -15.65517 135 ft 43 kts 193°
2026-05-07 16:54 11.88873 -15.65549 138 ft 8 kts 118°
2026-05-07 16:55 11.88862 -15.65492 138 ft 10 kts 99°
2026-05-07 16:55 11.88911 -15.65447 137 ft 12 kts 24°
2026-05-07 16:55 11.88940 -15.65372 137 ft 14 kts 107°
2026-05-07 16:55 11.88904 -15.65272 137 ft 16 kts 101°
2026-05-07 16:56 11.88988 -15.65220 136 ft 2 kts
2026-05-07 16:56 11.89004 -15.65228 135 ft 4 kts 312°
2026-05-07 16:56 11.89011 -15.65249 135 ft 0 kts 274°
2026-05-07 17:00 11.89010 -15.65236 135 ft 9 kts 274°
2026-05-07 17:00 11.88978 -15.65217 136 ft 11 kts 200°
2026-05-07 17:01 11.88924 -15.65239 137 ft 9 kts 198°
2026-05-07 17:01 11.88915 -15.65311 137 ft 7 kts 296°
2026-05-07 17:01 11.88944 -15.65393 137 ft 9 kts 272°
2026-05-07 17:01 11.88917 -15.65441 137 ft 9 kts 213°
2026-05-07 17:02 11.88846 -15.65445 138 ft 15 kts 132°
2026-05-07 17:02 11.88814 -15.65360 138 ft 13 kts 108°
2026-05-07 17:02 11.88829 -15.65318 138 ft 7 kts 37°
2026-05-07 17:02 11.88819 -15.65303 138 ft 7 kts 189°
2026-05-07 17:03 11.88806 -15.65308 138 ft 2 kts 205°